Wind_Speed
17 17 16 16 16 16 17 18 18 18 18 18 18 18 18 18 17 15 15 14 15 16 16 17 17 16 15 14 14 14 13 13 13 13 13 12 12 12 11 11 11 11 11 11 11 10 10 9 9 10 10 10 10 10 10 10 10 10 11 10 11 11 11 11 11 11 11 11 10 9 9 9 9 8 8 8 8 8 9 9 9 10 10 9 10
20 20 19 18 17 17 17 17 18 19 19 18 17 18 18 19 18 17 15 15 15 16 16 16 16 16 15 14 14 13 13 13 13 13 13 13 13 13 12 12 11 11 11 11 11 11 11 11 10 11 11 11 11 11 11 11 10 10 11 11 11 12 12 12 12 12 12 12 11 10 9 9 9 9 9 9 9 9 9 10 10 9 9 8 9
21 22 22 21 21 20 19 19 18 19 19 18 18 18 18 18 18 18 16 15 15 16 16 16 15 15 14 14 14 13 12 12 12 13 13 13 13 13 12 12 11 11 10 10 11 11 11 11 10 11 11 11 12 12 12 12 11 11 11 11 11 11 12 13 13 13 12 12 12 11 10 9 10 11 10 10 10 9 10 11 10 9 8 7 8
22 22 23 23 22 22 21 20 20 20 20 19 19 18 18 17 18 18 16 15 15 15 16 16 15 15 14 14 13 13 12 12 12 12 13 13 13 13 13 12 12 12 11 10 10 10 10 10 10 10 11 11 12 12 13 13 13 12 11 11 10 11 11 12 13 13 12 12 12 12 11 10 10 11 11 10 10 10 10 10 9 8 9 9 10
24 23 23 23 22 22 22 22 21 21 21 21 21 19 18 17 17 18 17 17 16 15 15 15 15 15 14 13 12 12 12 12 12 12 12 13 13 13 13 13 13 13 12 12 11 10 10 10 9 10 10 10 11 11 12 13 13 13 12 11 10 10 10 11 12 11 11 12 12 11 11 11 10 11 10 9 9 9 9 8 8 9 11 12 13
26 26 25 24 21 20 20 21 22 22 23 23 22 21 20 18 17 18 18 19 18 17 16 16 15 15 13 12 11 11 11 11 11 12 12 13 13 13 13 13 14 14 14 13 12 11 11 10 10 10 10 9 9 10 11 12 12 12 12 12 11 10 10 10 10 10 10 10 10 10 10 10 10 10 9 7 7 9 8 8 9 11 12 13 15
28 28 26 24 22 20 20 20 21 22 22 22 22 21 21 20 19 19 19 20 20 20 19 18 17 16 14 13 12 11 11 11 11 12 12 13 13 13 14 14 14 15 15 14 14 13 12 11 11 11 10 9 9 9 9 10 10 11 11 11 11 10 10 9 8 7 7 8 8 8 8 8 9 10 8 7 8 9 10 10 12 13 13 13 15
28 27 26 25 24 24 23 24 24 24 23 22 21 21 21 21 22 22 21 21 21 21 21 21 20 18 16 15 14 13 12 12 12 12 13 13 13 14 14 15 15 15 15 15 16 15 15 14 13 13 12 11 10 10 10 9 9 10 10 10 10 10 10 9 8 8 7 7 8 8 8 8 9 10 10 10 10 12 12 11 13 15 14 13 14
28 27 26 26 27 27 26 27 27 27 26 24 22 22 22 22 23 23 23 23 23 23 23 23 23 21 20 18 16 14 13 14 14 14 14 14 14 14 15 15 16 16 16 16 16 17 17 16 16 15 14 14 14 13 13 12 11 11 10 10 10 10 10 9 9 9 9 10 10 10 10 11 12 12 13 14 13 14 13 12 13 15 15 15 15
31 29 28 27 28 28 27 28 28 27 27 27 26 24 24 25 25 24 24 24 24 24 24 25 25 25 24 22 20 17 16 16 16 16 16 16 16 15 15 15 15 15 16 16 17 17 17 17 18 18 17 17 17 17 16 16 15 15 14 13 13 12 12 12 12 12 12 12 13 13 13 15 15 15 15 16 14 13 13 13 13 15 15 16 17
32 30 29 29 28 28 28 27 27 27 27 27 27 26 25 25 26 26 26 26 26 25 25 25 26 27 26 25 23 21 20 20 19 19 19 19 18 17 16 15 15 14 15 15 16 16 16 17 18 18 19 20 20 20 19 18 18 18 17 17 16 16 16 16 15 15 15 15 16 16 17 18 18 17 17 16 14 13 14 14 14 15 15 16 18
29 28 28 30 30 30 29 28 27 27 27 27 27 27 26 25 27 28 28 28 27 26 25 25 27 28 28 27 25 24 24 24 24 23 22 21 19 18 17 16 15 15 15 14 14 15 15 16 17 18 19 20 21 21 22 21 21 20 19 19 18 18 18 18 18 18 18 18 19 19 20 20 20 19 18 16 15 14 14 15 14 15 16 17 19
25 25 25 27 29 30 29 29 28 28 28 28 29 28 27 26 26 27 28 29 28 27 26 26 27 28 29 28 28 27 27 27 27 26 25 23 21 20 18 17 17 16 16 16 16 16 15 16 16 17 18 19 20 21 22 23 23 23 22 21 20 20 20 20 21 21 20 20 21 21 22 21 20 21 20 17 15 15 15 15 15 15 16 18 19
21 21 21 22 23 24 26 26 26 27 27 28 30 30 28 27 26 25 25 27 29 28 27 27 28 29 30 30 30 29 29 30 30 29 27 25 24 22 21 20 19 19 18 18 18 18 17 17 17 17 17 17 18 19 20 21 22 23 23 23 23 23 23 23 23 23 23 22 22 22 23 22 21 21 22 19 17 17 17 16 17 17 18 19 20
19 17 17 18 18 18 20 21 24 25 26 28 29 30 29 29 28 26 26 27 29 30 30 29 29 30 31 32 31 31 32 32 32 31 29 27 26 24 24 23 23 22 21 21 20 20 20 20 19 19 19 18 19 19 19 20 20 21 21 22 23 24 24 24 25 25 25 24 23 24 25 25 23 22 23 22 19 19 19 18 18 21 21 21 22
23 18 18 19 19 17 17 18 19 21 22 23 25 26 27 28 29 30 31 31 32 33 33 32 31 32 32 33 33 33 33 33 32 31 30 30 29 27 26 26 26 25 25 24 24 24 24 23 22 22 22 22 22 21 21 21 20 20 20 21 22 23 23 24 25 25 25 25 24 25 25 26 24 23 23 23 22 22 21 19 21 24 24 23 24
25 22 21 23 23 22 22 22 21 21 21 21 22 23 24 25 27 29 30 31 32 34 36 35 34 34 34 34 34 34 34 33 32 32 32 32 31 30 29 28 27 27 27 27 27 27 27 26 26 26 25 25 25 25 25 24 22 21 21 21 21 21 22 24 25 25 25 25 25 25 25 25 25 24 24 24 24 25 24 22 24 27 26 24 25
27 25 24 24 25 24 25 26 27 28 27 24 23 22 22 23 24 26 28 29 30 32 34 35 35 35 36 35 35 34 34 34 34 34 34 33 33 32 31 30 29 27 27 28 29 29 29 29 28 28 27 27 27 28 28 26 25 24 24 23 22 21 21 25 26 26 26 25 24 24 24 24 25 25 25 26 27 28 26 25 27 29 27 26 27
29 27 26 26 27 27 27 27 28 30 29 27 26 25 24 24 24 24 26 28 30 31 32 33 33 35 36 36 36 35 35 35 36 36 36 35 34 33 33 32 31 30 30 30 31 31 30 30 30 29 28 29 30 30 30 29 27 26 27 26 24 22 24 27 28 28 27 26 25 25 24 25 26 26 27 28 29 30 29 28 29 30 28 27 28
31 30 29 28 29 29 30 29 29 29 30 29 29 29 28 27 25 25 26 27 28 30 31 32 32 34 34 35 36 36 36 37 38 39 38 37 36 35 34 33 33 33 33 33 33 32 32 32 32 32 31 31 32 32 33 32 30 29 28 28 25 25 28 31 30 29 29 28 27 26 26 27 28 28 29 30 32 33 33 32 32 31 29 28 29
32 31 30 30 30 31 32 32 32 31 31 31 31 31 31 29 28 28 28 28 27 28 29 30 32 34 35 35 35 36 37 39 41 41 40 39 39 38 37 37 36 35 34 34 34 34 34 34 34 34 34 33 33 34 34 34 33 31 30 29 29 29 32 32 31 31 31 30 29 29 28 28 29 30 31 32 34 36 37 36 35 34 32 31 31
33 33 32 32 32 32 33 34 34 34 33 33 32 32 33 32 31 31 31 30 29 28 29 29 31 33 34 35 34 34 37 40 43 43 42 40 40 39 39 40 40 38 36 36 35 35 35 35 35 36 35 35 35 35 35 36 36 34 32 32 32 32 33 33 32 33 33 33 33 32 31 31 32 32 32 33 35 37 38 37 36 36 35 34 34
35 35 35 34 34 34 34 35 35 35 35 35 34 33 34 34 34 33 34 33 31 30 29 29 30 30 32 33 32 32 35 39 42 43 43 41 41 40 40 40 41 41 39 38 37 37 37 37 37 37 37 36 36 37 37 37 37 36 36 36 35 35 34 34 33 34 34 35 34 34 33 34 34 34 35 35 36 37 38 38 37 37 37 36 36
37 37 36 36 36 35 35 35 35 36 36 36 36 35 35 35 35 35 35 35 34 33 32 32 31 31 32 32 32 32 33 35 38 40 41 41 41 41 41 41 42 42 42 41 40 39 39 39 39 38 38 38 38 38 38 38 38 38 38 39 38 38 37 36 36 36 36 36 36 35 35 35 35 35 36 37 38 39 39 39 39 40 39 38 37
40 39 38 38 37 37 37 36 36 36 36 36 36 36 35 35 36 36 36 36 36 36 36 35 34 34 34 34 34 34 34 34 35 36 38 38 39 40 40 42 43 43 43 42 42 41 41 40 40 40 40 40 39 39 39 39 39 39 39 40 40 40 40 40 40 40 39 38 37 37 36 36 37 37 37 38 39 39 40 41 41 41 41 41 39
42 41 41 40 40 39 39 38 38 37 37 37 37 37 36 36 36 36 36 37 37 38 38 38 38 38 37 37 37 37 36 36 36 36 36 37 38 39 40 42 43 43 43 43 42 42 43 43 43 43 42 42 42 41 41 41 41 40 41 41 41 41 41 41 42 42 41 40 40 39 39 39 40 40 40 40 41 40 41 42 42 42 43 44 43
45 44 44 43 43 43 42 42 41 40 40 39 39 39 39 39 38 38 38 38 38 39 40 41 41 41 41 41 41 41 40 39 38 38 38 38 39 40 41 41 42 42 43 43 43 43 43 44 45 46 45 45 44 43 42 42 42 42 42 42 42 42 43 43 42 42 41 41 40 40 40 40 41 41 42 42 42 42 43 44 44 43 44 46 45
47 47 47 47 46 46 45 45 45 45 44 43 43 42 42 42 42 42 41 40 40 41 41 42 43 44 45 45 44 44 45 44 42 41 40 41 41 41 42 42 41 41 41 42 42 43 44 45 46 47 47 47 46 45 44 43 43 43 42 43 43 44 44 44 44 42 42 42 41 41 41 41 41 41 42 43 43 43 44 45 45 43 43 46 46
50 50 50 49 49 48 48 48 48 48 48 47 47 46 46 45 45 45 45 45 44 44 44 44 45 46 47 48 48 48 48 48 47 46 44 44 43 43 43 43 42 41 41 42 42 43 45 46 46 46 46 46 46 45 44 43 43 42 42 42 42 43 43 44 43 42 42 42 42 41 42 42 42 42 43 43 43 44 45 46 45 43 43 44 44
52 52 52 52 51 51 51 50 50 50 51 51 51 51 50 49 49 49 49 48 48 48 48 48 48 48 48 49 49 50 51 51 52 50 49 48 47 46 46 46 45 44 43 43 42 42 43 44 44 44 44 44 44 44 44 43 42 40 40 40 41 41 42 42 42 42 42 42 41 41 41 41 42 42 43 43 43 44 45 46 45 44 43 43 44
52 52 52 52 52 53 52 52 52 53 53 53 54 53 53 53 52 52 52 52 52 52 52 51 51 51 50 50 51 51 52 53 54 54 54 52 51 51 50 49 49 47 46 44 43 42 42 43 43 44 43 42 42 42 43 43 43 42 40 39 40 41 41 42 42 42 42 42 42 41 41 41 41 42 42 43 43 43 44 45 45 45 44 43 43
53 53 53 53 53 53 53 53 53 54 54 55 55 55 55 55 55 55 54 54 54 54 55 55 54 54 54 53 54 54 53 54 54 55 56 56 55 55 54 53 52 52 50 48 47 45 45 44 44 45 45 44 43 43 43 43 44 43 42 40 40 41 41 42 43 43 42 42 42 42 42 42 42 41 42 42 42 42 43 43 43 43 42 41 41
52 52 53 53 53 53 54 54 54 54 55 55 56 56 56 56 56 56 56 56 56 56 56 57 57 57 57 57 57 57 57 57 56 56 57 57 58 58 58 57 56 55 55 54 52 51 50 49 49 48 47 47 46 46 45 45 45 44 44 43 43 43 43 43 44 44 43 43 43 43 43 43 43 42 42 43 43 42 41 40 40 40 40 39 40
52 52 53 53 53 54 54 54 55 55 55 55 56 56 57 57 58 57 57 57 58 58 58 58 59 59 59 59 59 60 59 60 60 59 59 59 59 60 60 60 60 59 59 58 58 57 56 55 54 53 52 52 51 50 49 49 48 47 47 47 47 47 47 47 47 46 46 46 45 44 44 45 45 44 44 44 44 43 42 42 42 42 43 42 42
52 53 53 53 53 54 54 55 56 56 56 56 56 57 57 58 58 59 58 58 58 59 59 60 60 61 61 61 61 62 62 62 62 62 62 62 62 62 62 62 63 62 62 62 62 62 61 61 60 59 58 57 57 56 55 54 54 53 53 52 52 52 52 51 51 51 50 50 49 48 47 47 47 47 46 46 46 45 44 44 45 45 45 44 44
52 52 53 53 53 53 54 55 55 56 56 57 57 57 58 58 59 59 60 60 60 60 60 61 62 62 63 63 63 63 64 64 64 65 65 65 65 65 66 65 65 65 65 65 65 65 65 65 65 64 64 63 63 62 61 60 60 60 59 59 58 58 58 57 56 55 54 53 53 52 51 51 50 50 50 49 49 48 47 47 47 47 46 45 45
51 51 52 52 52 53 53 54 54 55 56 56 56 57 57 58 59 60 60 61 61 61 61 62 62 63 64 65 66 66 66 66 66 66 67 67 67 68 68 68 68 68 68 67 67 67 67 67 67 67 68 68 67 67 66 65 65 64 64 64 63 62 62 61 60 59 58 57 56 56 55 55 54 54 53 52 51 51 50 50 50 50 48 47 47
51 51 51 51 52 52 53 53 54 54 55 55 55 56 56 57 58 59 60 61 61 62 62 63 63 63 64 65 66 67 67 68 68 68 68 68 69 70 70 70 71 71 71 71 71 71 70 70 70 69 69 69 69 69 69 69 68 67 66 66 65 65 64 64 63 62 61 60 59 59 58 58 58 57 56 55 54 53 52 52 52 51 50 49 49
50 51 51 52 52 53 53 54 54 54 55 55 55 56 56 56 57 57 58 59 60 61 62 63 63 64 65 66 67 68 68 69 70 70 71 71 71 71 71 72 72 72 73 73 74 74 74 73 72 72 71 71 71 70 70 70 69 68 67 66 66 65 65 64 64 63 63 62 61 60 60 59 59 59 59 59 58 57 55 55 55 55 53 52 51
51 51 52 52 53 54 54 55 55 56 56 56 57 57 57 57 56 57 57 58 58 59 60 62 63 64 65 66 67 69 69 70 70 71 72 73 73 73 73 73 73 74 74 75 76 76 76 76 75 75 74 74 73 72 72 71 70 70 69 68 67 66 65 65 65 64 63 63 62 61 60 60 60 60 60 60 60 59 58 57 57 56 56 55 54
53 53 53 53 54 54 55 56 56 57 57 58 58 58 58 58 58 58 58 58 58 59 60 61 62 64 65 66 67 68 70 71 72 72 72 73 74 74 75 75 75 75 75 76 77 77 77 77 77 77 77 77 76 75 74 73 72 72 71 70 68 67 66 66 65 65 64 63 62 61 61 60 60 60 60 60 61 60 60 59 58 57 57 56 56
55 55 55 55 55 55 55 56 57 57 58 58 58 59 59 59 58 58 59 59 59 60 61 62 63 64 66 67 68 69 70 71 73 74 74 75 75 75 76 76 77 77 77 78 78 78 78 78 78 78 78 78 78 78 77 76 75 74 73 72 71 70 69 68 67 66 65 64 63 62 62 61 61 61 61 60 61 60 60 60 59 58 58 57 57
56 56 56 56 56 56 56 56 57 58 58 59 59 59 59 59 59 60 60 60 61 61 62 63 63 64 65 67 68 69 70 72 73 75 75 76 77 77 77 77 77 78 78 79 79 79 79 79 79 79 79 79 79 79 79 79 78 77 76 75 74 72 71 70 69 68 67 66 65 64 64 63 63 63 62 62 61 61 60 60 60 59 59 58 58
57 56 56 56 56 56 56 56 57 58 59 59 60 60 61 61 62 62 62 63 63 63 63 64 64 65 66 67 68 70 71 72 74 75 76 77 78 79 79 79 79 80 80 80 80 81 81 81 81 80 80 80 80 80 80 80 80 80 79 78 77 75 74 73 72 70 69 68 67 66 66 65 65 65 64 63 63 62 61 61 61 60 60 60 59
54 54 54 54 54 55 55 55 56 57 58 59 59 60 61 62 62 63 63 64 64 64 64 65 65 66 67 67 69 70 71 73 74 76 77 78 79 80 80 81 82 82 83 82 82 82 82 82 83 82 82 81 81 81 81 81 81 81 81 80 79 78 77 76 75 73 72 71 70 69 68 68 67 67 66 66 65 64 63 62 62 61 61 60 60
50 50 51 52 52 53 53 54 54 55 56 56 57 58 59 60 61 61 62 62 62 63 63 64 64 65 66 66 67 68 70 71 72 74 75 77 78 78 79 80 81 82 83 84 84 84 84 84 84 83 83 83 83 82 82 82 82 82 82 81 81 80 79 79 78 76 75 74 73 71 70 69 69 69 69 68 67 66 65 64 63 62 62 61 61
47 48 49 49 50 51 51 52 52 53 53 54 54 55 56 57 58 59 59 60 61 61 62 63 63 64 65 66 67 67 68 68 70 71 72 73 74 75 76 78 79 81 82 83 84 84 85 85 85 84 84 84 84 84 84 84 84 83 83 83 82 82 81 81 80 79 79 78 76 74 73 72 71 71 71 71 70 69 67 66 65 64 64 63 62
43 44 46 47 48 48 49 49 50 51 51 52 53 54 55 56 57 58 59 59 60 61 62 62 63 64 64 65 65 66 66 67 67 68 69 69 70 71 73 74 76 78 79 80 81 82 83 84 85 85 85 84 84 84 84 85 85 85 85 84 84 83 83 82 82 81 81 80 79 78 76 74 73 72 72 72 72 71 70 69 68 67 66 65 64
41 42 43 45 46 47 48 48 49 51 52 53 54 55 55 56 57 58 59 60 61 62 62 63 64 64 64 65 65 66 66 67 67 67 67 67 67 68 69 71 72 74 75 76 77 78 80 81 82 84 84 84 84 84 84 85 85 86 86 86 86 85 85 84 84 83 83 82 81 81 79 78 76 75 74 74 73 73 72 71 70 69 68 67 66
41 42 43 44 46 47 48 49 50 52 53 53 54 55 56 57 57 58 59 60 61 62 63 64 64 65 65 65 66 66 67 67 67 67 67 67 67 67 68 69 70 71 71 72 73 74 75 77 78 80 82 83 84 84 84 84 85 86 86 87 87 87 86 86 86 85 85 84 83 82 82 80 79 78 77 76 75 75 74 73 72 72 71 70 69
42 43 45 46 47 48 49 50 51 52 53 54 54 55 55 56 57 57 58 59 60 61 62 63 64 65 65 66 66 66 67 67 67 68 67 67 67 68 68 69 69 69 70 70 71 71 72 73 74 76 78 80 81 83 84 84 84 85 86 86 87 88 88 88 87 87 87 86 85 84 83 83 82 80 79 79 78 77 76 75 74 74 73 72 71
Wind_Direction
204 207 210 210 210 208 206 204 204 204 205 204 203 204 205 205 205 208 210 208 206 203 201 201 200 201 203 205 207 209 208 209 212 215 217 219 222 225 228 231 232 232 233 231 227 221 217 215 211 208 207 206 206 206 209 212 215 221 228 232 232 234 237 237 238 242 246 249 251 251 251 255 261 270 282 290 296 303 307 311 314 318 325 332 334
204 204 205 206 208 208 208 207 206 207 210 210 208 207 208 209 209 211 214 213 209 205 202 202 201 199 200 202 206 210 212 213 214 215 216 218 220 224 227 230 232 235 237 237 235 232 228 225 222 219 216 214 213 213 213 215 218 223 228 231 233 233 236 239 242 246 249 254 259 258 256 262 273 280 285 289 294 300 303 306 312 320 327 332 332
209 208 206 206 206 206 205 205 205 206 210 212 213 214 214 214 214 216 218 218 215 210 206 205 204 204 203 204 206 208 213 217 219 220 219 220 220 221 224 227 230 234 237 239 239 236 234 232 229 228 226 223 221 220 220 221 223 228 231 234 236 237 238 241 244 248 252 257 263 267 267 268 271 274 277 281 286 293 296 301 310 319 323 324 322
212 213 213 211 209 208 206 204 203 204 207 209 212 216 220 221 222 224 225 225 224 220 216 213 211 211 210 210 210 211 213 218 222 224 225 225 225 224 223 223 226 231 234 237 238 238 237 236 234 234 234 232 230 227 225 226 228 232 237 240 242 243 244 247 249 251 255 259 264 270 274 273 271 274 280 286 289 293 295 300 311 317 317 318 318
214 216 218 219 217 214 211 208 206 205 205 207 208 211 216 222 228 232 234 235 235 232 228 224 222 220 218 218 219 218 219 220 222 225 227 230 231 230 228 226 226 228 230 233 236 238 239 237 235 235 235 235 235 233 232 231 232 235 241 247 251 253 254 255 257 258 260 264 268 272 275 279 282 285 290 295 296 295 295 302 310 310 311 315 315
217 216 217 220 223 226 226 221 215 211 208 207 207 207 208 213 223 232 237 240 241 241 241 239 236 233 230 230 231 231 229 228 227 227 228 230 232 233 233 233 232 231 231 232 234 236 238 238 237 235 235 234 235 235 234 234 235 237 240 245 251 256 258 260 262 264 265 269 273 275 276 279 283 287 292 295 290 289 295 303 305 302 305 308 309
219 218 217 217 218 225 235 238 235 227 219 213 210 208 208 208 212 222 232 238 240 241 243 245 245 244 241 239 238 238 238 236 233 230 229 230 231 232 233 234 235 236 235 235 234 234 234 235 237 237 238 237 237 237 236 234 235 237 238 239 241 245 250 255 258 261 266 270 273 275 275 273 273 278 287 287 280 282 292 300 299 299 303 305 305
223 222 221 218 216 217 223 231 236 236 233 225 216 212 212 213 212 215 221 229 235 238 240 241 242 243 242 241 238 238 239 238 235 233 232 231 230 230 230 230 231 233 235 236 237 236 235 234 236 237 240 241 241 240 240 238 237 238 238 236 236 238 241 246 248 251 257 262 265 267 268 268 267 272 281 287 286 287 291 294 290 292 300 304 303
226 225 222 220 221 221 220 223 228 232 234 232 224 216 214 216 218 218 220 223 228 234 238 239 239 238 237 235 231 230 234 237 237 235 233 232 231 230 229 228 228 229 230 233 236 237 237 236 237 238 240 242 243 243 244 244 244 245 244 243 243 244 246 248 249 251 254 257 261 265 267 268 270 274 279 284 288 290 292 289 284 288 298 302 302
227 228 224 222 223 225 224 224 227 230 230 230 228 222 218 218 219 219 221 223 225 228 233 237 239 239 237 233 227 222 223 229 234 236 236 234 231 231 230 230 230 230 230 230 232 235 237 238 238 239 240 241 243 244 247 249 250 250 251 251 252 254 256 258 259 259 262 263 265 269 270 270 273 277 280 283 287 290 289 288 287 291 298 300 300
228 229 227 224 225 227 227 227 228 228 228 229 229 225 223 224 224 222 222 223 225 226 229 234 238 240 239 237 232 226 222 222 225 230 235 236 235 233 233 234 236 237 237 236 236 236 237 239 240 240 241 242 243 244 246 249 250 252 253 254 257 259 261 262 264 265 266 267 269 271 272 274 276 279 280 282 286 288 287 288 292 296 300 300 299
228 230 229 228 229 231 230 230 230 230 231 233 233 231 229 229 229 228 227 226 227 227 229 233 238 241 241 240 237 235 232 229 225 224 227 231 234 236 238 239 241 243 245 246 246 244 242 241 242 242 243 244 244 245 246 247 249 251 252 254 256 258 261 262 264 265 266 267 269 271 272 273 276 277 277 279 282 284 285 288 293 297 299 299 298
226 228 230 229 230 230 230 231 233 234 235 237 237 238 238 236 232 231 232 233 232 230 230 233 238 241 242 241 239 238 238 238 235 231 228 227 228 231 236 240 243 245 247 249 250 249 248 247 246 245 246 247 248 248 248 249 249 250 252 253 254 256 258 260 262 264 264 266 267 269 270 270 272 274 274 272 273 277 281 284 288 291 291 291 292
224 227 230 230 230 230 230 231 233 234 233 233 234 236 238 236 233 233 235 237 237 236 234 235 238 241 242 241 239 239 239 240 240 239 237 234 231 229 230 234 238 242 246 248 250 251 252 253 253 252 252 252 251 251 251 252 252 253 253 254 255 255 256 257 259 261 262 263 265 266 267 268 268 271 273 271 267 269 272 276 280 282 281 282 285
231 236 239 240 238 235 232 232 234 236 234 233 233 234 234 232 231 234 241 247 247 246 242 238 237 240 243 242 240 239 240 240 242 242 242 242 240 237 235 234 234 236 239 243 247 250 252 254 256 257 257 257 256 255 254 254 254 254 254 255 256 256 256 257 258 259 260 261 262 263 267 269 269 269 271 271 268 265 266 269 272 275 275 277 280
242 242 245 249 251 247 240 236 238 241 242 242 240 239 238 236 235 239 246 251 252 251 247 241 237 237 240 242 242 242 242 242 244 245 244 244 242 241 240 240 239 238 238 238 240 243 246 248 251 253 255 257 258 259 259 258 257 255 253 252 253 256 257 259 260 260 261 261 261 262 265 269 271 269 269 270 270 268 268 268 269 270 271 275 278
250 248 249 254 259 260 256 251 247 247 248 250 249 247 246 245 243 243 246 247 248 248 246 241 236 235 236 238 241 244 245 246 247 247 247 246 244 242 241 241 243 244 246 246 245 245 246 247 248 251 254 256 259 260 261 262 262 261 258 255 253 254 256 259 261 261 261 261 260 261 263 265 268 269 268 268 268 268 269 268 267 268 270 273 276
256 254 252 255 259 261 260 259 256 255 256 256 255 253 251 249 249 249 248 246 245 244 242 239 237 236 235 235 238 242 246 249 249 250 249 249 248 247 245 243 243 244 246 249 250 250 251 251 252 253 256 259 261 263 265 266 266 267 267 265 263 260 258 260 263 262 262 263 263 262 262 262 264 267 267 267 267 268 269 268 267 270 272 274 275
257 256 253 253 255 256 257 257 256 256 256 258 259 257 254 253 253 252 250 246 244 242 241 239 238 237 237 237 239 240 243 246 249 250 251 251 251 250 249 248 246 245 244 245 247 249 251 253 254 255 256 258 260 262 264 265 265 266 268 270 272 272 267 265 266 267 268 269 268 266 265 264 264 265 264 265 266 267 269 268 268 270 272 273 275
257 257 255 253 254 255 255 256 255 253 253 254 257 259 259 257 255 253 252 250 247 246 245 243 242 241 240 241 243 243 243 244 247 249 250 252 252 253 253 251 250 248 248 247 248 249 250 251 253 255 255 256 259 261 263 264 264 264 266 268 270 269 268 269 272 273 274 275 274 271 269 266 266 265 265 264 265 267 268 268 269 271 273 274 274
255 256 255 254 254 255 256 257 257 255 254 253 253 256 259 259 255 254 255 255 253 250 249 247 245 244 243 243 246 247 246 244 246 247 249 251 252 253 255 255 253 251 250 250 250 250 251 251 252 254 255 257 259 261 264 267 267 267 267 268 267 265 267 270 273 275 276 278 277 275 273 271 269 267 266 265 265 266 268 269 270 272 274 275 273
252 254 254 253 253 253 254 255 256 257 256 255 253 252 255 256 256 254 253 255 255 253 251 249 246 245 245 246 248 249 248 246 246 246 248 250 251 252 255 257 258 257 255 253 251 251 251 251 252 253 254 256 257 259 262 265 268 269 268 267 266 265 267 270 272 274 275 275 275 275 275 275 273 272 271 270 269 269 271 272 273 274 274 274 273
251 252 252 253 252 252 252 253 254 255 256 255 254 252 251 252 254 254 253 253 254 254 253 252 250 248 247 248 249 249 249 249 248 248 250 251 252 253 255 257 259 260 258 256 253 251 250 250 250 251 252 253 254 255 257 260 263 266 267 267 266 266 266 267 268 269 270 271 272 273 274 274 275 276 276 276 276 276 277 278 279 278 277 277 277
251 251 251 252 252 252 252 252 253 253 254 254 254 252 251 250 251 253 253 253 253 253 253 254 254 253 252 251 251 250 250 250 252 254 255 255 254 255 256 256 257 258 258 257 255 254 253 252 251 251 252 252 252 253 254 255 257 260 262 264 266 267 268 268 267 267 267 268 269 271 272 273 274 275 275 275 276 277 278 279 280 280 280 281 282
251 252 253 253 254 254 253 253 253 253 254 255 255 254 253 252 251 252 253 254 254 254 254 254 255 257 257 256 255 254 252 252 254 256 258 257 256 256 256 255 255 256 256 255 255 255 255 255 254 254 254 255 255 255 255 255 256 257 259 261 263 265 267 268 268 269 269 269 270 270 271 272 272 272 272 273 274 275 277 277 279 280 282 283 283
251 253 254 255 256 257 257 256 255 255 255 256 256 256 256 254 254 253 252 253 253 253 253 254 255 256 257 258 258 257 255 254 254 256 258 258 259 260 259 257 256 256 255 255 254 254 255 255 256 256 256 257 257 257 258 259 260 261 261 262 262 263 264 266 267 269 270 270 271 271 271 271 272 273 273 274 275 276 277 277 278 280 281 281 281
251 252 254 255 256 258 259 260 259 258 257 257 258 258 259 258 257 256 255 254 254 253 253 253 254 255 256 257 258 258 257 255 254 255 256 258 259 261 262 261 259 257 256 255 255 255 256 256 256 256 257 257 257 258 259 261 262 263 264 265 265 265 265 266 267 269 270 270 269 269 270 270 270 272 273 274 275 277 277 277 277 278 278 279 280
250 251 253 254 255 256 258 260 261 261 261 260 259 259 259 260 260 259 258 257 257 255 254 253 253 253 254 255 256 258 258 258 256 255 255 257 258 260 262 263 263 261 259 258 257 256 256 255 256 257 258 258 258 258 259 261 262 264 265 265 266 266 267 268 269 270 270 270 269 269 269 269 270 270 271 272 273 273 274 274 276 277 278 278 279
251 251 252 253 254 255 256 257 259 261 262 262 262 260 260 259 260 260 260 259 258 258 256 255 253 252 252 253 254 256 258 259 258 257 256 256 257 258 260 262 263 262 261 260 260 259 257 256 256 258 259 259 258 257 258 259 260 262 263 264 265 266 267 268 269 270 270 270 270 270 270 270 271 271 272 272 272 272 273 274 275 276 277 278 279
251 251 252 252 253 254 254 255 257 258 260 262 262 262 262 261 260 260 259 259 259 258 258 257 256 255 253 253 253 253 255 257 258 258 258 257 257 258 259 260 261 261 261 261 261 260 258 257 256 255 255 256 256 255 255 255 256 257 259 261 263 265 266 268 268 269 269 270 271 271 271 272 272 272 272 273 273 274 274 275 276 277 277 277 277
251 251 251 252 252 253 254 254 255 256 257 259 260 261 262 262 262 261 260 260 259 259 259 258 258 257 256 256 254 253 252 253 255 257 258 258 257 257 258 258 259 260 260 261 260 260 258 257 255 253 253 253 254 254 254 254 254 254 255 258 261 263 265 266 267 268 268 270 270 271 271 272 273 273 273 274 273 274 274 275 277 278 278 278 278
252 253 253 253 253 253 253 253 253 254 255 256 257 259 260 261 262 262 262 261 261 260 260 260 259 259 258 258 258 257 255 253 253 254 255 256 256 256 256 256 257 258 259 259 259 258 257 256 254 254 254 254 255 255 255 255 255 255 255 257 260 262 264 266 267 267 268 269 270 271 272 273 273 274 274 274 274 273 274 275 276 277 278 280 282
253 253 254 254 254 254 254 254 254 253 253 254 255 256 257 259 260 260 261 261 261 260 260 260 260 260 259 258 258 258 258 257 255 254 254 254 255 256 255 255 254 255 256 257 257 256 256 255 254 254 254 255 256 256 257 257 257 257 257 258 259 261 264 265 267 268 269 269 270 271 272 273 273 274 274 274 274 273 273 274 275 275 277 280 284
253 253 254 254 255 255 255 255 255 255 254 254 254 255 255 256 257 258 259 260 260 260 260 260 259 259 259 259 259 258 258 258 258 257 256 255 255 255 255 255 255 254 253 254 254 255 255 255 255 254 254 255 256 257 258 258 259 259 260 260 261 261 263 264 266 268 269 270 270 270 271 271 271 272 272 273 273 272 272 272 272 273 276 279 282
252 253 253 253 254 255 255 256 256 256 256 256 255 255 255 256 256 257 258 259 259 259 259 259 259 259 258 258 258 258 258 258 258 258 257 256 256 255 255 255 255 255 254 254 253 253 254 254 255 255 255 255 256 256 257 258 259 260 261 261 262 263 263 263 264 266 267 269 270 270 270 271 271 271 271 271 271 272 272 272 272 273 275 278 279
254 254 254 254 254 254 254 255 255 255 255 256 256 256 256 256 256 257 257 258 258 259 260 260 260 259 259 258 257 257 257 257 257 257 257 257 256 256 256 256 255 255 255 255 254 254 253 253 253 254 255 256 256 256 256 257 258 258 259 260 261 262 263 263 263 264 265 267 268 269 270 270 270 270 270 270 270 271 271 271 272 273 274 276 277
256 257 256 256 256 256 256 255 255 255 255 255 255 255 255 255 255 256 256 257 257 258 259 259 260 260 260 259 258 257 257 256 256 256 256 256 256 256 256 256 256 256 255 255 255 255 254 254 253 253 253 254 255 256 256 256 256 257 258 258 259 259 260 261 262 263 263 265 266 267 268 268 268 269 269 270 270 270 270 270 270 271 272 274 275
258 258 258 258 257 257 257 257 257 256 256 256 256 256 255 255 255 255 256 256 256 257 257 258 258 259 259 259 259 259 258 257 256 256 255 255 255 255 255 255 256 256 256 256 256 255 255 255 255 254 254 254 254 255 256 256 256 256 257 257 258 258 259 260 260 261 262 263 264 265 266 266 266 266 267 267 268 268 269 269 269 270 270 271 272
259 259 259 259 258 258 257 257 257 257 258 258 258 258 257 257 257 257 256 257 257 257 257 258 258 258 258 258 259 259 259 258 258 257 256 255 254 254 254 254 254 255 255 255 256 256 256 256 256 256 255 255 255 255 255 256 257 257 257 257 257 258 258 259 260 260 261 261 262 263 263 263 263 264 264 265 265 266 267 268 268 270 270 270 270
259 260 261 260 260 259 259 258 258 258 258 259 259 259 259 259 259 259 259 258 258 258 258 259 259 259 259 259 259 259 259 258 258 258 258 257 256 255 254 254 253 253 254 254 254 255 256 256 256 256 257 256 256 256 256 256 256 257 257 257 257 257 258 258 259 260 260 260 261 261 262 262 262 261 262 263 264 264 265 266 267 268 269 269 269
260 260 261 261 261 261 261 261 260 260 260 260 260 260 260 261 261 261 261 260 260 260 260 260 260 261 261 261 261 260 260 259 259 258 258 258 257 257 256 255 255 254 253 253 253 254 254 255 256 256 257 257 257 257 257 256 256 257 257 257 257 257 257 258 258 259 259 260 260 260 261 261 261 261 261 261 262 263 264 264 265 265 266 267 267
259 260 260 261 261 262 262 263 263 262 262 262 262 262 262 262 262 262 262 262 262 262 262 262 262 262 262 262 262 262 261 261 261 260 260 259 258 258 257 257 256 256 255 254 254 254 254 254 254 255 255 257 258 258 258 258 257 257 257 257 257 258 258 258 258 258 259 259 259 260 260 260 261 261 261 261 261 262 262 263 264 264 264 265 265
259 259 260 260 261 261 262 263 263 263 263 263 263 263 263 264 264 264 264 265 265 265 264 264 264 264 264 264 264 264 263 263 262 262 262 261 261 260 259 258 258 257 256 256 255 255 254 254 254 254 254 254 255 257 258 258 258 258 258 258 258 258 258 258 258 258 258 258 259 259 259 260 260 260 260 260 261 261 262 262 263 263 264 264 265
259 260 260 261 261 261 262 262 263 263 264 264 264 265 265 265 265 266 266 266 266 266 266 266 265 265 265 265 266 265 265 265 265 264 264 263 263 262 261 261 260 259 258 257 256 256 255 255 255 254 254 254 254 254 255 256 257 258 258 258 258 258 258 258 258 258 258 258 258 258 258 259 259 260 260 260 260 260 261 261 262 262 263 264 264
260 260 261 261 262 262 262 263 263 264 264 265 265 266 266 266 266 267 267 267 267 267 267 267 267 267 267 266 266 266 267 266 266 266 266 265 264 264 263 262 262 261 260 259 258 257 256 256 255 255 254 254 254 254 254 254 255 256 256 257 257 257 258 258 258 258 258 257 257 257 257 257 258 259 259 259 260 260 260 260 261 261 262 262 263
261 261 262 262 263 263 264 264 265 265 265 266 266 267 267 267 268 268 268 268 269 269 269 270 270 269 269 268 268 267 267 267 267 267 267 266 266 265 264 263 262 261 260 260 259 259 258 257 256 255 255 254 254 254 254 254 254 254 255 255 256 256 256 257 257 257 257 257 257 256 256 256 257 258 258 258 259 259 259 259 260 260 261 261 262
262 262 263 263 263 264 264 265 265 266 266 266 267 267 267 268 269 269 270 270 271 271 271 272 272 272 271 271 270 270 269 268 268 268 267 267 266 265 264 263 262 261 260 259 259 259 258 258 257 256 255 254 254 253 253 253 253 253 253 254 254 254 254 255 256 256 256 257 257 256 256 255 255 256 257 258 258 258 258 259 259 259 260 260 261
263 263 263 263 263 264 264 265 265 266 267 268 268 269 269 270 270 271 272 272 273 273 273 273 273 273 273 273 273 272 271 271 270 269 268 267 266 265 264 263 263 262 260 259 258 258 257 257 257 256 256 255 254 253 252 252 252 252 253 253 253 253 253 253 254 254 254 255 256 256 256 255 255 255 255 256 257 258 258 258 259 259 259 260 260
265 265 265 265 265 265 266 266 267 268 268 269 270 271 272 272 273 273 274 274 274 275 275 275 275 275 274 274 274 273 272 272 271 270 269 268 267 266 265 264 263 262 261 260 259 258 257 256 256 255 255 254 254 253 252 251 250 250 251 251 252 252 252 252 252 252 253 253 254 254 255 255 255 255 255 255 256 257 257 258 258 259 259 259 260
265 266 266 267 267 268 269 269 270 271 271 272 272 273 274 274 275 275 275 275 276 276 276 276 276 276 276 275 274 274 273 273 272 271 270 269 268 267 266 265 264 263 262 261 260 259 258 257 256 255 254 253 252 252 251 250 249 249 249 249 249 250 250 251 251 251 252 252 252 253 253 253 254 254 254 255 255 256 256 257 257 258 258 259 259
267 268 268 269 270 270 271 272 273 273 274 275 275 276 276 276 277 277 277 277 277 277 277 277 276 276 276 275 275 275 275 274 274 273 272 271 270 269 267 266 264 263 263 262 262 261 260 259 258 256 255 254 252 251 250 249 248 248 247 247 248 248 248 249 250 250 251 251 251 251 252 252 252 252 253 254 254 255 256 256 257 257 258 258 258
Height
5938 5940 5941 5943 5945 5946 5947 5948 5949 5950 5951 5952 5953 5954 5955 5956 5957 5958 5959 5959 5959 5959 5959 5960 5960 5961 5961 5962 5963 5963 5964 5965 5966 5967 5967 5968 5969 5969 5969 5969 5970 5970 5970 5970 5970 5970 5970 5970 5971 5971 5971 5971 5972 5972 5972 5973 5973 5973 5974 5974 5975 5975 5975 5975 5975 5975 5975 5975 5975 5975 5975 5975 5975 5975 5975 5975 5975 5975 5974 5974 5973 5973 5972 5972 5972
5936 5937 5939 5940 5942 5943 5945 5946 5947 5948 5949 5951 5952 5953 5954 5955 5956 5957 5958 5958 5959 5959 5959 5960 5960 5960 5960 5961 5962 5962 5963 5964 5965 5965 5966 5967 5968 5968 5969 5969 5969 5969 5969 5969 5969 5970 5970 5970 5970 5970 5970 5970 5971 5971 5971 5972 5972 5972 5973 5973 5973 5974 5974 5974 5975 5975 5975 5974 5974 5974 5974 5974 5974 5974 5974 5974 5974 5974 5973 5972 5972 5972 5971 5971 5970
5934 5935 5936 5937 5939 5940 5942 5944 5945 5946 5948 5949 5951 5952 5953 5955 5956 5957 5958 5959 5959 5959 5959 5959 5960 5960 5960 5960 5961 5961 5962 5963 5964 5965 5965 5966 5967 5968 5968 5968 5969 5969 5969 5969 5969 5969 5969 5969 5969 5969 5969 5970 5970 5970 5970 5971 5971 5971 5971 5972 5972 5972 5973 5973 5974 5974 5974 5974 5974 5974 5974 5974 5974 5973 5973 5973 5973 5972 5972 5971 5971 5970 5970 5970 5970
5931 5933 5934 5935 5936 5938 5939 5941 5943 5944 5945 5947 5949 5950 5952 5954 5956 5957 5958 5959 5959 5959 5959 5960 5960 5960 5960 5960 5960 5960 5961 5962 5963 5964 5965 5965 5966 5967 5967 5968 5968 5968 5969 5969 5969 5969 5968 5969 5969 5969 5969 5969 5969 5969 5970 5970 5970 5970 5970 5971 5971 5971 5972 5972 5972 5973 5973 5973 5973 5973 5973 5973 5973 5972 5972 5972 5972 5972 5971 5970 5970 5970 5969 5969 5968
5929 5931 5933 5935 5936 5937 5938 5939 5940 5942 5943 5944 5946 5948 5950 5953 5955 5956 5957 5958 5959 5959 5960 5960 5960 5959 5960 5960 5960 5960 5960 5961 5961 5962 5963 5964 5965 5966 5966 5966 5967 5967 5968 5968 5968 5968 5968 5968 5968 5968 5968 5968 5968 5968 5969 5969 5969 5970 5970 5970 5970 5971 5971 5971 5971 5971 5972 5972 5972 5972 5972 5972 5972 5971 5971 5971 5971 5971 5970 5970 5970 5969 5968 5968 5967
5925 5927 5929 5932 5936 5938 5940 5940 5940 5940 5940 5941 5943 5945 5947 5949 5951 5954 5955 5956 5957 5958 5959 5959 5960 5959 5959 5959 5960 5960 5960 5960 5960 5961 5961 5962 5963 5964 5964 5965 5965 5966 5966 5967 5967 5967 5967 5968 5968 5968 5968 5967 5967 5967 5968 5968 5968 5968 5969 5969 5970 5970 5970 5970 5970 5970 5971 5971 5971 5971 5971 5971 5971 5970 5970 5971 5971 5970 5970 5969 5969 5968 5968 5967 5967
5922 5924 5926 5929 5932 5935 5938 5941 5942 5942 5941 5941 5941 5943 5944 5945 5947 5949 5951 5953 5955 5956 5957 5958 5958 5959 5959 5959 5959 5959 5959 5960 5960 5959 5959 5960 5960 5961 5962 5963 5963 5964 5964 5965 5965 5966 5966 5966 5967 5967 5967 5967 5967 5967 5967 5967 5967 5967 5968 5968 5968 5969 5969 5969 5969 5970 5970 5970 5970 5970 5970 5970 5970 5970 5969 5970 5970 5969 5969 5969 5968 5968 5967 5967 5966
5921 5923 5925 5927 5929 5930 5932 5936 5939 5940 5941 5941 5941 5942 5943 5943 5943 5944 5946 5949 5952 5954 5955 5956 5957 5957 5957 5957 5957 5957 5957 5958 5958 5958 5958 5958 5958 5958 5959 5960 5961 5962 5962 5963 5964 5964 5965 5965 5966 5966 5966 5967 5967 5967 5967 5967 5967 5967 5967 5967 5967 5968 5968 5968 5968 5969 5969 5969 5969 5969 5969 5969 5969 5969 5969 5969 5968 5968 5968 5968 5968 5967 5967 5966 5966
5920 5921 5923 5925 5927 5927 5928 5931 5933 5935 5938 5940 5941 5940 5940 5940 5941 5941 5943 5945 5948 5950 5952 5954 5955 5955 5955 5955 5955 5955 5955 5955 5956 5956 5956 5956 5956 5956 5956 5957 5958 5959 5960 5961 5962 5962 5963 5964 5964 5965 5965 5966 5966 5966 5966 5966 5966 5966 5967 5967 5967 5967 5967 5967 5968 5968 5968 5968 5968 5968 5968 5968 5968 5968 5967 5967 5967 5967 5967 5967 5967 5966 5966 5965 5965
5918 5919 5920 5922 5924 5925 5927 5929 5930 5932 5934 5937 5938 5938 5938 5937 5938 5939 5940 5942 5944 5946 5949 5951 5952 5953 5954 5954 5954 5953 5953 5953 5953 5953 5954 5954 5954 5954 5954 5955 5956 5957 5958 5959 5960 5961 5961 5962 5963 5963 5964 5964 5964 5965 5965 5965 5965 5965 5966 5966 5966 5967 5967 5967 5967 5967 5967 5967 5967 5967 5967 5966 5966 5966 5966 5965 5966 5966 5965 5965 5965 5965 5965 5964 5963
5915 5916 5917 5919 5921 5923 5925 5926 5928 5930 5931 5933 5935 5935 5934 5935 5936 5937 5938 5939 5941 5943 5945 5947 5949 5951 5952 5953 5953 5952 5951 5949 5949 5950 5951 5952 5953 5953 5954 5954 5955 5956 5957 5958 5959 5960 5960 5961 5961 5962 5962 5962 5962 5963 5963 5963 5963 5963 5964 5964 5965 5965 5965 5966 5966 5966 5966 5966 5966 5965 5965 5965 5964 5964 5964 5964 5964 5964 5964 5964 5964 5964 5963 5963 5962
5911 5913 5914 5916 5918 5920 5922 5924 5925 5927 5928 5930 5932 5932 5932 5933 5934 5935 5936 5937 5938 5939 5941 5943 5946 5948 5950 5952 5952 5951 5950 5948 5946 5946 5947 5949 5951 5953 5954 5954 5954 5955 5955 5956 5957 5958 5959 5959 5960 5960 5960 5960 5960 5960 5961 5961 5961 5961 5962 5962 5962 5963 5963 5963 5963 5963 5964 5964 5964 5963 5963 5963 5963 5962 5963 5963 5963 5963 5963 5962 5963 5962 5962 5961 5960
5908 5910 5911 5913 5915 5917 5919 5921 5922 5923 5925 5927 5928 5929 5930 5931 5932 5933 5934 5935 5936 5937 5938 5940 5942 5945 5947 5949 5949 5949 5948 5946 5945 5944 5944 5946 5948 5950 5952 5953 5953 5953 5953 5954 5954 5955 5956 5956 5957 5958 5958 5958 5959 5959 5958 5958 5959 5959 5959 5960 5960 5960 5960 5960 5960 5960 5961 5961 5961 5961 5960 5961 5961 5960 5960 5961 5961 5961 5961 5961 5961 5961 5960 5959 5959
5906 5907 5909 5911 5913 5914 5916 5917 5918 5919 5921 5922 5924 5925 5927 5928 5930 5931 5932 5934 5935 5935 5936 5937 5939 5941 5944 5945 5946 5946 5944 5943 5943 5943 5944 5945 5946 5947 5948 5949 5950 5951 5951 5952 5952 5952 5953 5954 5954 5955 5955 5956 5957 5957 5957 5957 5957 5957 5957 5957 5957 5957 5958 5958 5957 5957 5957 5958 5958 5958 5957 5958 5958 5958 5958 5959 5959 5959 5959 5959 5958 5958 5958 5957 5957
5904 5905 5906 5908 5910 5911 5912 5913 5914 5915 5916 5917 5919 5920 5923 5924 5926 5928 5930 5931 5932 5933 5933 5934 5936 5938 5940 5941 5942 5941 5940 5940 5940 5941 5942 5944 5944 5945 5945 5946 5946 5947 5948 5949 5950 5950 5951 5951 5952 5952 5952 5953 5953 5954 5955 5955 5955 5955 5955 5955 5955 5955 5955 5955 5954 5954 5955 5955 5956 5955 5955 5955 5956 5956 5955 5955 5956 5956 5956 5957 5956 5955 5954 5954 5954
5902 5902 5902 5903 5905 5908 5909 5911 5911 5912 5913 5914 5916 5917 5919 5921 5922 5923 5925 5926 5928 5929 5930 5930 5932 5934 5936 5937 5937 5937 5937 5938 5938 5939 5940 5940 5941 5942 5943 5943 5943 5944 5945 5946 5947 5947 5948 5949 5949 5949 5949 5949 5950 5950 5951 5951 5952 5953 5953 5953 5952 5952 5952 5952 5951 5952 5952 5953 5953 5953 5952 5952 5952 5953 5952 5952 5953 5953 5953 5954 5953 5952 5951 5952 5952
5898 5900 5900 5901 5902 5904 5906 5908 5908 5909 5910 5912 5913 5914 5916 5917 5918 5919 5920 5921 5922 5925 5926 5927 5928 5930 5932 5933 5933 5932 5933 5935 5936 5936 5936 5937 5938 5939 5939 5940 5941 5942 5942 5943 5943 5944 5944 5945 5946 5946 5946 5947 5947 5947 5947 5948 5949 5949 5950 5950 5950 5950 5950 5949 5948 5949 5949 5949 5949 5950 5950 5949 5949 5949 5949 5949 5949 5949 5950 5951 5950 5948 5949 5950 5950
5895 5897 5899 5899 5900 5902 5903 5905 5905 5905 5906 5909 5910 5911 5913 5914 5915 5916 5917 5918 5919 5921 5923 5924 5924 5924 5926 5927 5928 5929 5930 5931 5931 5931 5932 5933 5935 5936 5936 5937 5938 5939 5939 5939 5940 5941 5941 5942 5943 5944 5944 5944 5944 5944 5945 5946 5947 5947 5947 5947 5947 5948 5947 5945 5944 5944 5945 5945 5946 5946 5946 5946 5946 5946 5946 5946 5945 5945 5946 5947 5946 5944 5946 5947 5947
5892 5894 5896 5897 5898 5899 5901 5902 5903 5903 5904 5906 5908 5909 5910 5911 5912 5913 5914 5915 5916 5917 5919 5921 5920 5920 5920 5922 5924 5925 5927 5927 5926 5926 5927 5928 5930 5932 5933 5935 5936 5936 5936 5936 5936 5937 5938 5938 5939 5940 5941 5941 5940 5941 5941 5942 5944 5944 5944 5945 5945 5946 5944 5942 5941 5941 5941 5942 5942 5943 5943 5943 5943 5943 5943 5942 5941 5940 5941 5942 5942 5941 5942 5943 5944
5887 5890 5892 5893 5894 5895 5896 5898 5899 5901 5902 5903 5904 5905 5906 5908 5909 5910 5911 5912 5913 5914 5915 5916 5916 5916 5916 5917 5919 5921 5923 5923 5923 5923 5923 5923 5925 5926 5928 5930 5932 5932 5932 5933 5933 5934 5934 5935 5935 5936 5936 5936 5936 5937 5937 5938 5939 5941 5941 5942 5943 5943 5940 5939 5939 5939 5939 5939 5940 5940 5940 5940 5940 5940 5939 5939 5937 5936 5936 5937 5937 5937 5938 5940 5940
5884 5885 5887 5889 5890 5891 5892 5893 5894 5896 5898 5900 5901 5902 5902 5903 5905 5907 5907 5908 5908 5909 5910 5911 5912 5912 5912 5913 5915 5917 5918 5919 5919 5919 5920 5920 5919 5921 5923 5925 5927 5928 5929 5930 5931 5931 5931 5931 5932 5932 5932 5933 5933 5933 5933 5934 5935 5937 5939 5939 5939 5939 5937 5936 5937 5937 5936 5937 5936 5936 5937 5937 5936 5936 5936 5935 5934 5933 5931 5932 5932 5933 5934 5935 5935
5880 5881 5883 5884 5886 5887 5888 5889 5890 5891 5893 5895 5897 5898 5898 5899 5901 5902 5903 5904 5904 5904 5905 5905 5906 5907 5907 5908 5910 5912 5913 5914 5914 5915 5916 5917 5916 5916 5918 5919 5921 5924 5926 5926 5927 5927 5927 5927 5928 5928 5928 5929 5930 5930 5930 5930 5930 5932 5934 5934 5935 5934 5934 5934 5934 5934 5933 5933 5933 5933 5933 5932 5932 5932 5932 5931 5930 5929 5928 5928 5929 5929 5929 5930 5929
5876 5877 5878 5879 5881 5882 5884 5885 5886 5887 5888 5890 5892 5894 5895 5895 5896 5897 5899 5900 5900 5900 5900 5901 5902 5903 5904 5905 5906 5908 5909 5910 5910 5911 5911 5913 5913 5913 5914 5915 5916 5918 5921 5922 5922 5922 5922 5922 5923 5924 5924 5925 5925 5925 5925 5926 5926 5927 5927 5928 5929 5929 5929 5930 5930 5930 5930 5929 5929 5930 5930 5929 5928 5928 5928 5927 5926 5925 5924 5924 5924 5924 5924 5924 5924
5871 5872 5873 5874 5876 5877 5879 5880 5882 5883 5884 5885 5887 5889 5890 5891 5892 5892 5893 5894 5895 5896 5896 5897 5898 5898 5899 5900 5901 5903 5904 5905 5906 5906 5906 5907 5909 5909 5909 5910 5911 5913 5915 5916 5917 5918 5918 5918 5919 5919 5920 5920 5921 5921 5921 5922 5922 5922 5922 5922 5923 5923 5924 5924 5925 5924 5925 5925 5925 5925 5926 5925 5924 5924 5924 5922 5921 5921 5921 5920 5920 5919 5919 5920 5921
5865 5866 5868 5869 5871 5872 5874 5875 5877 5878 5879 5880 5881 5883 5884 5885 5886 5887 5888 5889 5890 5891 5891 5892 5893 5893 5894 5895 5895 5897 5899 5900 5901 5901 5901 5902 5903 5903 5904 5905 5906 5907 5909 5911 5912 5913 5914 5914 5914 5914 5915 5916 5916 5917 5917 5918 5917 5918 5918 5918 5919 5919 5919 5919 5919 5919 5920 5920 5921 5921 5921 5921 5920 5919 5919 5918 5917 5917 5917 5916 5916 5915 5915 5915 5916
5859 5860 5862 5863 5865 5866 5868 5869 5871 5873 5874 5875 5875 5877 5878 5879 5880 5881 5882 5883 5884 5885 5886 5887 5887 5888 5889 5889 5890 5891 5893 5894 5895 5896 5896 5896 5897 5897 5899 5900 5901 5902 5904 5905 5906 5908 5909 5910 5910 5910 5910 5910 5911 5912 5913 5913 5913 5914 5914 5914 5914 5915 5915 5915 5915 5915 5915 5916 5916 5916 5916 5916 5915 5915 5914 5914 5914 5914 5913 5912 5912 5912 5911 5909 5910
5853 5855 5856 5857 5859 5860 5861 5863 5864 5866 5868 5869 5870 5871 5872 5874 5875 5876 5877 5878 5879 5880 5880 5881 5882 5883 5884 5884 5885 5886 5887 5889 5890 5891 5892 5892 5892 5893 5893 5894 5895 5897 5898 5899 5900 5902 5903 5904 5905 5905 5905 5905 5906 5907 5908 5908 5908 5909 5909 5909 5909 5910 5910 5910 5910 5910 5911 5911 5911 5911 5911 5911 5911 5911 5910 5910 5910 5910 5908 5906 5906 5908 5906 5904 5904
5848 5849 5850 5852 5853 5855 5856 5857 5858 5859 5861 5862 5864 5866 5867 5868 5869 5870 5871 5873 5874 5874 5874 5875 5876 5877 5878 5879 5880 5880 5881 5883 5885 5886 5887 5888 5888 5888 5888 5889 5890 5891 5892 5893 5895 5896 5897 5898 5898 5899 5900 5900 5901 5902 5903 5903 5903 5903 5903 5903 5904 5904 5904 5904 5905 5905 5905 5905 5905 5906 5906 5906 5906 5906 5905 5905 5905 5904 5902 5900 5901 5902 5902 5899 5899
5842 5843 5844 5846 5847 5849 5851 5852 5852 5853 5854 5855 5856 5858 5860 5861 5862 5863 5865 5866 5867 5868 5868 5869 5870 5871 5872 5873 5874 5875 5875 5876 5878 5880 5881 5882 5882 5882 5883 5883 5884 5885 5886 5887 5889 5889 5890 5891 5892 5893 5893 5894 5895 5896 5897 5897 5898 5898 5898 5898 5898 5898 5898 5898 5899 5899 5899 5898 5899 5899 5899 5899 5899 5899 5899 5899 5899 5898 5896 5895 5895 5896 5896 5894 5894
5834 5836 5837 5839 5841 5843 5844 5846 5847 5848 5848 5848 5849 5850 5851 5853 5855 5856 5857 5859 5860 5861 5861 5862 5864 5865 5866 5867 5868 5869 5870 5870 5871 5872 5874 5875 5876 5877 5877 5878 5878 5879 5880 5881 5882 5883 5884 5884 5885 5886 5887 5888 5889 5890 5890 5891 5891 5892 5892 5892 5892 5892 5892 5893 5893 5893 5892 5892 5893 5893 5892 5892 5893 5893 5892 5892 5892 5891 5890 5889 5889 5889 5889 5888 5888
5826 5827 5829 5831 5833 5835 5837 5839 5840 5841 5842 5842 5842 5843 5844 5845 5847 5848 5850 5851 5852 5853 5854 5855 5856 5857 5858 5860 5861 5862 5863 5864 5865 5865 5866 5868 5869 5870 5871 5871 5872 5873 5873 5874 5875 5876 5877 5878 5879 5880 5881 5882 5883 5884 5884 5885 5886 5886 5886 5886 5886 5887 5887 5887 5887 5886 5886 5887 5887 5886 5886 5886 5886 5886 5886 5886 5886 5885 5884 5883 5882 5882 5882 5882 5881
5818 5819 5821 5823 5825 5827 5829 5830 5832 5833 5834 5835 5836 5836 5837 5838 5839 5840 5841 5843 5844 5845 5846 5847 5848 5849 5851 5852 5853 5853 5855 5857 5858 5859 5859 5860 5861 5862 5863 5864 5865 5866 5866 5867 5868 5869 5870 5872 5873 5874 5875 5875 5876 5877 5878 5879 5880 5880 5880 5881 5881 5881 5881 5881 5880 5880 5881 5881 5881 5880 5880 5880 5880 5880 5880 5880 5880 5879 5878 5878 5877 5876 5875 5875 5875
5811 5812 5813 5815 5817 5818 5820 5822 5823 5825 5826 5827 5828 5829 5830 5831 5832 5832 5833 5834 5835 5836 5837 5838 5840 5841 5842 5844 5844 5845 5846 5847 5849 5851 5852 5853 5853 5854 5855 5855 5857 5858 5859 5860 5861 5862 5863 5864 5866 5867 5868 5869 5870 5871 5872 5872 5873 5873 5874 5874 5875 5875 5875 5875 5874 5874 5875 5875 5874 5874 5874 5874 5873 5873 5874 5873 5873 5873 5873 5872 5871 5870 5869 5869 5869
5804 5805 5806 5808 5809 5810 5811 5813 5814 5816 5817 5819 5820 5822 5823 5823 5824 5825 5826 5826 5827 5828 5829 5830 5830 5832 5833 5834 5835 5836 5837 5838 5840 5841 5843 5845 5845 5846 5846 5847 5848 5849 5851 5852 5853 5854 5855 5856 5858 5859 5860 5861 5862 5863 5864 5865 5866 5866 5867 5867 5868 5869 5869 5869 5868 5868 5868 5868 5868 5868 5868 5868 5867 5867 5867 5867 5866 5867 5867 5866 5865 5864 5863 5863 5863
5797 5798 5799 5801 5802 5802 5803 5804 5806 5807 5808 5810 5812 5813 5814 5815 5816 5817 5818 5819 5819 5819 5820 5820 5821 5822 5824 5825 5826 5827 5828 5830 5831 5832 5833 5835 5836 5837 5837 5838 5839 5840 5842 5843 5844 5845 5846 5848 5849 5850 5851 5853 5854 5855 5856 5857 5858 5858 5859 5860 5861 5861 5862 5862 5862 5862 5861 5861 5861 5862 5861 5861 5861 5860 5860 5860 5860 5860 5860 5860 5858 5857 5857 5857 5856
5790 5791 5792 5793 5794 5795 5796 5797 5798 5799 5800 5801 5803 5804 5806 5807 5808 5809 5810 5811 5812 5812 5812 5812 5812 5813 5814 5815 5816 5818 5819 5820 5821 5822 5823 5825 5826 5827 5828 5829 5830 5831 5832 5834 5835 5836 5837 5838 5839 5841 5842 5843 5844 5846 5847 5848 5850 5850 5851 5852 5853 5853 5854 5854 5854 5854 5854 5854 5854 5854 5854 5854 5854 5853 5853 5853 5853 5854 5854 5853 5852 5851 5851 5850 5850
5782 5783 5784 5785 5787 5788 5788 5789 5790 5791 5792 5793 5794 5796 5797 5798 5799 5800 5801 5802 5803 5804 5804 5804 5804 5804 5804 5805 5806 5808 5809 5810 5811 5812 5813 5815 5816 5817 5818 5819 5820 5821 5823 5824 5825 5826 5827 5828 5830 5831 5833 5834 5835 5836 5837 5839 5840 5841 5842 5843 5844 5845 5845 5845 5845 5846 5846 5846 5846 5846 5846 5846 5846 5846 5846 5846 5845 5846 5846 5846 5845 5844 5844 5843 5843
5774 5775 5776 5777 5779 5780 5780 5781 5781 5782 5784 5785 5786 5787 5788 5789 5790 5791 5792 5793 5794 5795 5795 5795 5795 5795 5795 5795 5796 5797 5799 5799 5800 5801 5803 5804 5805 5806 5808 5809 5810 5811 5813 5814 5815 5816 5817 5818 5820 5821 5823 5824 5825 5826 5827 5828 5830 5831 5832 5833 5834 5835 5835 5836 5836 5836 5837 5837 5837 5838 5838 5838 5838 5838 5838 5838 5837 5837 5838 5838 5837 5837 5837 5836 5836
5767 5767 5768 5769 5770 5771 5772 5773 5773 5774 5775 5776 5777 5778 5779 5780 5781 5782 5783 5784 5785 5785 5786 5786 5786 5785 5785 5785 5786 5787 5788 5788 5789 5790 5791 5793 5794 5795 5797 5798 5800 5801 5802 5803 5804 5805 5806 5808 5809 5811 5812 5814 5815 5816 5817 5818 5819 5820 5821 5823 5824 5824 5825 5825 5826 5826 5827 5827 5828 5828 5829 5829 5829 5829 5829 5829 5829 5829 5829 5829 5829 5828 5829 5829 5828
5759 5759 5760 5760 5762 5763 5763 5764 5765 5766 5767 5768 5768 5769 5770 5771 5772 5773 5774 5775 5776 5776 5776 5776 5776 5775 5775 5775 5776 5777 5777 5778 5778 5779 5779 5780 5781 5783 5785 5787 5789 5790 5791 5792 5793 5794 5795 5797 5798 5800 5801 5802 5804 5805 5806 5808 5809 5810 5811 5812 5813 5814 5814 5815 5815 5816 5817 5817 5818 5819 5819 5819 5819 5820 5820 5820 5820 5820 5821 5821 5821 5821 5820 5820 5821
5751 5751 5751 5751 5753 5754 5754 5755 5756 5757 5758 5758 5759 5760 5761 5762 5763 5764 5765 5766 5766 5767 5767 5767 5766 5766 5765 5765 5765 5766 5766 5767 5767 5767 5768 5768 5769 5771 5772 5774 5776 5778 5779 5780 5781 5783 5785 5786 5788 5789 5790 5791 5791 5793 5795 5796 5797 5798 5799 5801 5802 5803 5804 5804 5805 5805 5806 5807 5808 5809 5809 5809 5809 5810 5811 5811 5811 5811 5812 5812 5812 5813 5812 5812 5812
5742 5742 5742 5743 5744 5745 5746 5746 5747 5748 5748 5749 5750 5751 5751 5752 5754 5754 5755 5755 5756 5756 5757 5757 5756 5756 5755 5755 5755 5755 5756 5755 5755 5755 5756 5756 5757 5759 5760 5761 5763 5765 5766 5768 5769 5771 5773 5775 5776 5778 5779 5779 5780 5781 5782 5784 5785 5786 5788 5789 5791 5792 5793 5794 5794 5795 5796 5797 5798 5799 5799 5800 5800 5800 5801 5802 5802 5802 5803 5803 5803 5804 5804 5804 5804
5733 5733 5734 5735 5736 5737 5738 5738 5738 5739 5739 5740 5740 5741 5742 5743 5743 5744 5744 5745 5745 5746 5746 5746 5746 5745 5745 5744 5744 5744 5744 5744 5744 5744 5744 5744 5745 5746 5747 5749 5750 5751 5753 5754 5756 5758 5760 5762 5764 5766 5767 5768 5768 5769 5770 5771 5773 5774 5776 5777 5779 5780 5782 5783 5784 5784 5786 5787 5788 5788 5789 5790 5790 5790 5791 5792 5792 5793 5794 5794 5794 5794 5794 5794 5795
5724 5725 5726 5727 5728 5728 5729 5729 5730 5730 5730 5730 5731 5731 5732 5732 5733 5733 5734 5734 5734 5735 5735 5735 5735 5735 5734 5734 5733 5733 5733 5732 5732 5732 5732 5732 5733 5733 5734 5736 5737 5738 5739 5741 5743 5745 5747 5748 5750 5753 5755 5756 5757 5757 5758 5759 5760 5762 5763 5765 5767 5768 5770 5771 5772 5773 5774 5776 5777 5778 5778 5780 5780 5781 5781 5781 5782 5783 5784 5784 5785 5785 5785 5785 5785
5716 5717 5718 5718 5718 5719 5719 5720 5720 5721 5721 5721 5721 5721 5721 5722 5722 5722 5722 5723 5723 5723 5723 5723 5723 5723 5723 5723 5722 5721 5721 5720 5720 5719 5719 5719 5719 5720 5722 5723 5723 5724 5725 5727 5728 5731 5732 5734 5736 5738 5741 5742 5744 5745 5746 5747 5748 5749 5751 5753 5754 5756 5757 5759 5760 5761 5763 5764 5765 5767 5768 5769 5770 5770 5771 5771 5772 5773 5774 5775 5775 5776 5776 5776 5776
5709 5710 5710 5710 5710 5710 5711 5711 5711 5711 5712 5712 5712 5712 5711 5711 5711 5711 5711 5712 5712 5712 5711 5711 5711 5711 5711 5710 5710 5709 5709 5708 5707 5707 5706 5706 5706 5707 5708 5708 5709 5709 5710 5712 5714 5716 5718 5719 5721 5723 5726 5728 5730 5732 5733 5734 5735 5737 5738 5740 5742 5744 5745 5746 5748 5749 5750 5751 5753 5755 5757 5758 5759 5759 5760 5761 5761 5762 5764 5764 5765 5766 5766 5767 5767
5702 5702 5702 5702 5702 5702 5702 5703 5702 5703 5703 5703 5703 5702 5702 5702 5701 5701 5701 5701 5701 5700 5700 5700 5699 5699 5698 5698 5697 5697 5697 5696 5695 5694 5694 5694 5693 5693 5693 5693 5694 5694 5696 5697 5699 5701 5702 5704 5706 5708 5711 5713 5715 5718 5719 5720 5722 5723 5725 5726 5728 5730 5732 5734 5735 5736 5737 5738 5740 5742 5744 5746 5748 5748 5748 5749 5750 5751 5753 5754 5755 5756 5756 5757 5758
5695 5695 5695 5695 5695 5695 5695 5695 5695 5694 5694 5694 5693 5693 5693 5693 5692 5692 5691 5691 5690 5689 5689 5688 5688 5687 5686 5686 5685 5685 5684 5684 5683 5683 5682 5682 5681 5681 5680 5680 5680 5680 5681 5683 5685 5686 5687 5689 5690 5693 5695 5698 5700 5702 5704 5706 5708 5709 5711 5712 5714 5716 5719 5721 5722 5723 5724 5726 5727 5729 5731 5733 5735 5736 5737 5737 5738 5740 5741 5743 5744 5745 5746 5747 5748
5688 5688 5688 5688 5688 5688 5688 5687 5687 5686 5686 5685 5685 5684 5684 5683 5683 5682 5682 5681 5680 5679 5678 5677 5677 5676 5676 5675 5674 5673 5672 5672 5671 5671 5670 5670 5669 5669 5668 5667 5667 5667 5667 5669 5670 5671 5672 5674 5675 5677 5679 5682 5684 5687 5689 5691 5693 5694 5696 5698 5700 5702 5704 5706 5708 5710 5711 5713 5715 5716 5718 5720 5722 5724 5725 5726 5727 5728 5730 5732 5733 5734 5734 5736 5737
5681 5681 5681 5680 5680 5680 5680 5680 5679 5678 5678 5677 5677 5676 5675 5674 5673 5673 5672 5671 5670 5669 5668 5667 5666 5665 5664 5664 5663 5662 5661 5660 5659 5659 5658 5658 5657 5657 5656 5655 5655 5655 5655 5656 5657 5658 5658 5660 5661 5662 5664 5666 5668 5670 5673 5675 5677 5679 5681 5683 5686 5687 5689 5691 5693 5695 5697 5700 5702 5703 5705 5707 5709 5711 5713 5714 5715 5717 5718 5720 5721 5722 5723 5724 5726
5674 5674 5674 5673 5673 5673 5672 5672 5671 5670 5669 5669 5668 5667 5666 5665 5664 5663 5662 5661 5660 5659 5658 5657 5656 5655 5653 5652 5651 5650 5650 5649 5648 5647 5647 5646 5646 5644 5644 5643 5643 5643 5644 5644 5644 5645 5646 5647 5648 5649 5650 5651 5653 5655 5657 5659 5661 5664 5666 5669 5671 5673 5675 5677 5679 5680 5682 5685 5688 5690 5691 5693 5696 5698 5700 5702 5703 5705 5706 5708 5709 5710 5712 5713 5714